Sedona, AZ

11:00 AM MST on June 23, 2017 (GMT -0700)
Sedona

Weather History for KSEZ - January, 2013

Change the Weather History Date:

Friday, January 18, 2013

  Actual Average Record
Temperature  
Mean Temperature 48 °F -  
Max Temperature 60 °F 57 °F 66 °F (2011)
Min Temperature 37 °F 31 °F 33 °F (2012)
Degree Days  
Heating Degree Days 16    
Moisture  
Dew Point 19 °F    
Average Humidity 33    
Maximum Humidity 45    
Minimum Humidity 22    
Precipitation  
Precipitation 0.00 in - - ()
Sea Level Pressure  
Sea Level Pressure 30.27 in    
Wind  
Wind Speed 12 mph (ENE)    
Max Wind Speed 21 mph    
Max Gust Speed 28 mph    
Visibility 10 miles    
Events      
Averages and records for this station are not official NWS values.
T = Trace of Precipitation, MM = Missing Value Source: NWS Daily Summary

Daily Weather History Graph

Daily Weather History Graph

Search for Another Location

Airport or City:

Trip Planner

Search our weather history database for the weather conditions in past years. The results will help you decide how hot, cold, wet, or windy it might be!

Date:

Astronomy

Jan. 18, 2013 Rise Set
Actual Time 7:33 AM MST 5:42 PM MST
Civil Twilight 7:06 AM MST 6:09 PM MST
Nautical Twilight 6:35 AM MST 6:40 PM MST
Astronomical Twilight 6:04 AM MST 7:10 PM MST
Moon 11:33 AM MST (1/18) 12:17 AM MST (1/18)
Length of Visible Light 11h 03m
Length of Day
10h 09m
Waxing Crescent, 48% of the Moon is Illuminated
Jan 18
Waxing Crescent
Jan 18
First Quarter
Jan 26
Full
Feb 3
Last Quarter
Feb 10
New

Hourly Weather History & Observations

Time (MST) Temp. Windchill Dew Point Humidity Pressure Visibility Wind Dir Wind Speed Gust Speed Precip Events Conditions
12:15 AM 42.8 °F 35.4 °F 17.6 °F 36% 30.31 in 10.0 mi ENE 15.0 mph - N/A   Clear
12:35 AM 42.8 °F 35.8 °F 17.6 °F 36% 30.31 in 10.0 mi ENE 13.8 mph - N/A   Clear
12:55 AM 42.8 °F 35.4 °F 17.6 °F 36% 30.32 in 10.0 mi ENE 15.0 mph - N/A   Clear
1:15 AM 42.8 °F 35.8 °F 17.6 °F 36% 30.32 in 10.0 mi ENE 13.8 mph 18.4 mph N/A   Clear
1:55 AM 41.0 °F 33.1 °F 17.6 °F 39% 30.32 in 10.0 mi ENE 15.0 mph 20.7 mph N/A   Clear
2:15 AM 41.0 °F 33.5 °F 17.6 °F 39% 30.32 in 10.0 mi ENE 13.8 mph - N/A   Clear
2:35 AM 41.0 °F 33.1 °F 17.6 °F 39% 30.31 in 10.0 mi ENE 15.0 mph - N/A   Clear
2:55 AM 41.0 °F 32.8 °F 17.6 °F 39% 30.31 in 10.0 mi ENE 16.1 mph - N/A   Clear
3:15 AM 41.0 °F 33.1 °F 17.6 °F 39% 30.30 in 10.0 mi ENE 15.0 mph 21.9 mph N/A   Clear
3:35 AM 41.0 °F 32.8 °F 17.6 °F 39% 30.30 in 10.0 mi NE 16.1 mph 21.9 mph N/A   Clear
3:55 AM 39.2 °F 30.8 °F 17.6 °F 42% 30.30 in 10.0 mi NE 15.0 mph - N/A   Clear
4:15 AM 39.2 °F 30.5 °F 17.6 °F 42% 30.29 in 10.0 mi ENE 16.1 mph 23.0 mph N/A   Clear
4:35 AM 39.2 °F 30.8 °F 17.6 °F 42% 30.29 in 10.0 mi ENE 15.0 mph - N/A   Clear
5:15 AM 37.4 °F 28.5 °F 17.6 °F 45% 30.28 in 10.0 mi ENE 15.0 mph - N/A   Clear
5:35 AM 37.4 °F 28.5 °F 15.8 °F 41% 30.28 in 10.0 mi ENE 15.0 mph 23.0 mph N/A   Clear
6:15 AM 37.4 °F 27.2 °F 15.8 °F 41% 30.29 in 10.0 mi ENE 19.6 mph 25.3 mph N/A   Clear
6:35 AM 37.4 °F 27.5 °F 15.8 °F 41% 30.29 in 10.0 mi ENE 18.4 mph 25.3 mph N/A   Clear
6:55 AM 37.4 °F 27.5 °F 15.8 °F 41% 30.30 in 10.0 mi ENE 18.4 mph 26.5 mph N/A   Clear
7:15 AM 37.4 °F 27.5 °F 15.8 °F 41% 30.30 in 10.0 mi ENE 18.4 mph 24.2 mph N/A   Clear
7:35 AM 37.4 °F 27.5 °F 15.8 °F 41% 30.31 in 10.0 mi ENE 18.4 mph 24.2 mph N/A   Clear
7:55 AM 37.4 °F 27.2 °F 15.8 °F 41% 30.31 in 10.0 mi ENE 19.6 mph 23.0 mph N/A   Clear
8:15 AM 39.2 °F 30.5 °F 15.8 °F 39% 30.31 in 10.0 mi ENE 16.1 mph 23.0 mph N/A   Clear
8:55 AM 41.0 °F 33.9 °F 17.6 °F 39% 30.32 in 10.0 mi ENE 12.7 mph 19.6 mph N/A   Clear
9:15 AM 42.8 °F 35.8 °F 17.6 °F 36% 30.33 in 10.0 mi East 13.8 mph 18.4 mph N/A   Clear
9:35 AM 44.6 °F 38.8 °F 17.6 °F 34% 30.34 in 10.0 mi East 11.5 mph 19.6 mph N/A   Clear
9:55 AM 46.4 °F 42.9 °F 17.6 °F 32% 30.34 in 10.0 mi ESE 6.9 mph - N/A   Clear
10:15 AM 50.0 °F - 19.4 °F 30% 30.34 in 10.0 mi ESE 5.8 mph - N/A   Clear
10:35 AM 50.0 °F - 19.4 °F 30% 30.34 in 10.0 mi SE 5.8 mph - N/A   Clear
10:55 AM 51.8 °F - 19.4 °F 28% 30.33 in 10.0 mi SE 4.6 mph - N/A   Clear
11:15 AM 51.8 °F - 19.4 °F 28% 30.33 in 10.0 mi Calm Calm - N/A   Clear
11:35 AM 51.8 °F - 19.4 °F 28% 30.31 in 10.0 mi Calm Calm - N/A   Clear
11:55 AM 53.6 °F - 19.4 °F 26% 30.30 in 10.0 mi SSW 5.8 mph - N/A   Clear
12:15 PM 53.6 °F - 19.4 °F 26% 30.29 in 10.0 mi South 4.6 mph - N/A   Clear
12:35 PM 55.4 °F - 19.4 °F 25% 30.27 in 10.0 mi SSW 5.8 mph - N/A   Clear
12:55 PM 57.2 °F - 19.4 °F 23% 30.26 in 10.0 mi SW 3.5 mph - N/A   Clear
1:15 PM 55.4 °F - 19.4 °F 25% 30.25 in 10.0 mi Calm Calm - N/A   Clear
1:35 PM 57.2 °F - 21.2 °F 25% 30.24 in 10.0 mi SSW 4.6 mph - N/A   Clear
1:55 PM 59.0 °F - 21.2 °F 23% 30.23 in 10.0 mi SSE 3.5 mph - N/A   Clear
2:15 PM 59.0 °F - 21.2 °F 23% 30.23 in 10.0 mi Calm Calm - N/A   Clear
2:35 PM 60.8 °F - 21.2 °F 22% 30.22 in 10.0 mi SW 4.6 mph - N/A   Clear
2:55 PM 60.8 °F - 21.2 °F 22% 30.22 in 10.0 mi South 3.5 mph - N/A   Clear
3:15 PM 60.8 °F - 21.2 °F 22% 30.22 in 10.0 mi South 4.6 mph - N/A   Clear
3:35 PM 60.8 °F - 21.2 °F 22% 30.22 in 10.0 mi Calm Calm - N/A   Clear
3:55 PM 60.8 °F - 21.2 °F 22% 30.21 in 10.0 mi Calm Calm - N/A   Clear
4:15 PM 60.8 °F - 21.2 °F 22% 30.21 in 10.0 mi Calm Calm - N/A   Clear
4:35 PM 59.0 °F - 21.2 °F 23% 30.21 in 10.0 mi Calm Calm - N/A   Clear
4:55 PM 59.0 °F - 19.4 °F 22% 30.22 in 10.0 mi Calm Calm - N/A   Clear
5:15 PM 57.2 °F - 19.4 °F 23% 30.22 in 10.0 mi West 3.5 mph - N/A   Clear
5:35 PM 55.4 °F - 19.4 °F 25% 30.22 in 10.0 mi Calm Calm - N/A   Clear
5:55 PM 53.6 °F - 21.2 °F 28% 30.23 in 10.0 mi ENE 6.9 mph - N/A   Clear
6:15 PM 51.8 °F - 21.2 °F 30% 30.23 in 10.0 mi ENE 13.8 mph 18.4 mph N/A   Clear
6:55 PM 50.0 °F - 21.2 °F 32% 30.23 in 10.0 mi NE 15.0 mph - N/A   Clear
7:15 PM 50.0 °F - 21.2 °F 32% 30.24 in 10.0 mi NE 17.3 mph 20.7 mph N/A   Clear
7:55 PM 46.4 °F 39.8 °F 21.2 °F 37% 30.24 in 10.0 mi NE 16.1 mph 21.9 mph N/A   Clear
8:15 PM 46.4 °F 40.1 °F 19.4 °F 34% 30.25 in 10.0 mi NE 15.0 mph 24.2 mph N/A   Clear
8:35 PM 46.4 °F 39.2 °F 19.4 °F 34% 30.25 in 10.0 mi NE 18.4 mph 26.5 mph N/A   Clear
8:55 PM 44.6 °F 37.2 °F 19.4 °F 37% 30.25 in 10.0 mi NE 17.3 mph 23.0 mph N/A   Clear
9:15 PM 44.6 °F 37.4 °F 19.4 °F 37% 30.25 in 10.0 mi NE 16.1 mph - N/A   Clear
9:35 PM 44.6 °F 36.6 °F 19.4 °F 37% 30.25 in 10.0 mi NE 19.6 mph 26.5 mph N/A   Clear
9:55 PM 44.6 °F 36.4 °F 19.4 °F 37% 30.25 in 10.0 mi NE 20.7 mph 27.6 mph N/A   Clear
10:15 PM 44.6 °F 36.6 °F 19.4 °F 37% 30.25 in 10.0 mi NE 19.6 mph 27.6 mph N/A   Clear
10:35 PM 44.6 °F 36.9 °F 19.4 °F 37% 30.25 in 10.0 mi NE 18.4 mph 24.2 mph N/A   Clear
10:55 PM 44.6 °F 37.2 °F 19.4 °F 37% 30.25 in 10.0 mi NE 17.3 mph 24.2 mph N/A   Clear
11:15 PM 44.6 °F 36.9 °F 19.4 °F 37% 30.25 in 10.0 mi ENE 18.4 mph 24.2 mph N/A   Clear
11:35 PM 44.6 °F 37.2 °F 19.4 °F 37% 30.26 in 10.0 mi ENE 17.3 mph 23.0 mph N/A   Clear
11:55 PM 44.6 °F 37.8 °F 19.4 °F 37% 30.26 in 10.0 mi ENE 15.0 mph - N/A   Clear